990  
ASUS43 KGLD 210708  
RWRGLD  
 
GOODLAND FORECAST AREA HOURLY WEATHER ROUNDUP  
NATIONAL WEATHER SERVICE GOODLAND KS  
1200 AM MST THU FEB 21 2019  
   
..OFFICIAL OBSERVATIONS
 
 
 
CITY SKY/WX TMP DP RH WIND PRES REMARKS
 
GOODLAND KS PTCLDY 15 7 70 S9 29.83R  
HILL CITY KS CLEAR 15 12 88 CALM 29.92R  
IMPERIAL NEB CLEAR 7 0 73 CALM 29.85S  
MCCOOK NEB CLEAR 11 8 88 W5 29.89R  
AKRON CO CLEAR 17 8 67 E12 29.77S WCI 4  
BURLINGTON CO PTCLDY 19 8 62 SE13 29.80S WCI 6  
LIMON CO CLEAR 9 6 88 N5 29.74F  

 
   
..UNOFFICIAL OBSERVATIONS
 
 
 
CITY SKY/WX TMP DP RH WIND PRES REMARKS
 
COLBY KS CLEAR 19 9 63 CALM 29.87S  
SHARON SPRINGS N/A 16 6 64 S5 N/A  
TRIBUNE KS CLEAR 21 16 79 E7 29.84S  
KIT CARSON CO N/A 20 11 68 CALM N/A  
YUMA CO FAIR 12 5 73 SE6 29.82  

 
 
 
CLICK HERE TO GO TO PREVIOUS BULLETINS.

The Nexlab KS Page
The Nexlab CO Page
The Nexlab NE Page Main Text Page